Home > Weather > Ali Sabieh > Past weeks

Flag for Djibouti Past Weather in Ali Sabieh, Djibouti — Yesterday and Last 2 Weeks

Now
102 °F

Partly sunny.


Feels Like: 112 °F
Forecast: 93 / 108 °F
Wind: 12 mph from West

Location: Djibouti Ambouli

Current Time: Jun 27, 2016 at 9:06:26 AM

Latest Report: Jun 27, 2016 at 8:00 AM


Visibility: N/A

Pressure: 29.68 "Hg (27.45 "Hg at 713m altitude)

Humidity: 37%

Dew Point: 72 °F

Location of Ali SabiehLocation

Past Weather in Ali Sabieh — Graph

°F

Ali Sabieh Temperature Yesterday

Maximum temperature yesterday: 109 °F (at 12:00 PM)
Minimum temperature yesterday: 91 °F (at 6:00 AM)
Average temperature yesterday: 99 °F

High & Low Weather Summary for the Past Weeks

 TemperatureHumidityPressure
High113 °F (Jun 21, 2:00 PM)79% (Jun 14, 10:00 PM)29.83 "Hg (Jun 14, 10:00 PM)
Low86 °F (Jun 13, 6:00 AM)18% (Jun 17, 12:00 PM)29.50 "Hg (Jun 24, 3:00 PM)
Average99 °F47%29.65 "Hg
* Reported Jun 12 7:00 AM — Jun 27 7:00 AM, Ali Sabieh, Weather by CustomWeather, © 2016

Note: Actual official high and low records may vary slightly from our data, if they occured in-between our weather recording intervals... More about our weather records

Advertising

Ali Sabieh Weather History for the Previous 24 Hours

Scroll right to see more
 ConditionsComfort  
Time TempWeatherWind HumidityBarometerVisibility
7:00 AM
Mon, Jun 27
97 °FPartly sunny.10 mph50%29.65 "Hg5 mi
6:00 AM95 °FPartly sunny.7 mph53%29.65 "Hg5 mi
4:00 AM97 °FClear.3 mph50%29.65 "Hg5 mi
2:00 AM99 °FClear.8 mph50%29.65 "Hg5 mi
1:00 AM97 °FClear.7 mph53%29.65 "Hg5 mi
12:00 AM97 °FClear.3 mph60%29.65 "Hg5 mi
11:00 PM
Sun, Jun 26
97 °FClear.6 mph56%29.65 "Hg5 mi
10:00 PM97 °FClear.6 mph56%29.65 "Hg5 mi
8:00 PM97 °FClear.No wind50%29.65 "Hg10 mi
7:00 PM95 °FPassing clouds.7 mph53%29.62 "Hg5 mi
5:00 PM99 °FSunny.12 mph47%29.59 "Hg10 mi
4:00 PM100 °FSunny.15 mph40%29.59 "Hg10 mi
3:00 PM100 °FSunny.15 mph40%29.59 "Hg10 mi
2:00 PM100 °FSunny.20 mph40%29.62 "Hg10 mi
12:00 PM109 °FSunny.13 mph21%29.68 "Hg4 mi
11:00 AM106 °FScattered clouds.14 mph40%29.71 "Hg4 mi
10:00 AM102 °FScattered clouds.14 mph40%29.74 "Hg4 mi
9:00 AM102 °FScattered clouds.17 mph42%29.74 "Hg3 mi
Weather by CustomWeather, © 2016

See weather overviewHow to use our weather pages